sat.trackr.live / text

‹ back to catalog

STARLINK-1992

NORAD 47632 · 2021-012N

PAYLOAD ACTIVE UNKNOWN

§ Identity

Operator
Country
US
Launch date
2021-02-16
Launch site
AFETR
Launch vehicle
Mass (kg)
RCS (m²)

Purposes: comms

External: N2YO · Heavens-Above · Gunter

§ Orbital elements

Epoch: 2026-05-24T22:02:03.496128Z

Period
94.01 min
Inclination
53.1614°
Eccentricity
0.0000972
Mean motion
15.31718142 rev/d
Perigee alt
470.0 km
Apogee alt
471.4 km
Semi-major
6,848.8 km
B*
-1.8782e-5
RAAN
338.1577°
Arg perigee
94.3917°
Mean anomaly
265.7196°
Rev number
29,303

§ Raw data

STARLINK-19921 47632U 21012N   26144.91809602 -.00000948  00000+0 -18782-4 0  99922 47632  53.1614 338.1577 0000972  94.3917 265.7196 15.31718142293035

JSON: /api/v1/satellites/47632 · /tle

For live sub-satellite position, see the globe view (requires WebGL).

§ Visibility from observer

Set your observer location to see the next 7 days of passes ≥ 10°. The values pass through the URL so the page stays shareable.

No JS? Fill the form by hand. The geolocation button needs JavaScript.